Flag for Germany Weather past 2 weeks in Deggendorf, Bavaria, Germany

Now
63 °F

Clear.


Feels Like: 63 °F
Forecast: 61 / 90 °F
Wind: 2 mph from Southeast

Location: Straubing

Current Time: Jul 3, 2015 at 4:39:04 AM

Latest Report: Jul 3, 2015 at 4:00 AM


Visibility: 6 mi

Pressure: 30.23 "Hg

Humidity: 88%

Dew point: 59 °F

Location of DeggendorfLocation

Historic Weather in Deggendorf — Graph

°F

Deggendorf temperature yesterday

Maximum temperature yesterday: 86 °F (at 5:00 PM)
Minimum temperature yesterday: 58 °F (at 6:00 AM)
Average temperature yesterday: 75 °F

Past Weeks' High & Low Weather Summary

 TemperatureHumidityPressure
High86 °F (Jul 2, 5:00 PM)99% (Jun 18, 10:00 PM)30.27 "Hg (Jun 18, 10:00 PM)
Low44 °F (Jun 25, 5:00 AM)38% (Jun 25, 4:00 PM)29.76 "Hg (Jun 23, 3:00 AM)
Average62 °F75%30.09 "Hg
* Reported Jun 18 3:00 AM — Jul 3 3:00 AM, Deggendorf, Weather by CustomWeather, © 2015

Note: Actual official high and low records may vary slightly from our data, if they occured in-between our weather recording intervals... More about our weather records

Advertising

Deggendorf weather history for previous 24 hours

 ConditionsComfort  
Time TempWeatherWind HumidityBarometerVisibility
3:00 AM
Fri, Jul 3
62 °FFog.2 mph95%30.24 "Hg4 mi
2:00 AM64 °FClear.1 mph92%30.24 "Hg5 mi
1:00 AM67 °FClear.1 mph88%30.22 "Hg6 mi
12:00 AM66 °FClear.2 mph89%30.22 "Hg7 mi
10:00 PM
Thu, Jul 2
71 °FClear.2 mph83%30.18 "Hg9 mi
9:00 PM80 °FSunny.1 mph60%30.14 "Hg17 mi
8:00 PM83 °FSunny.1 mph53%30.12 "Hg14 mi
7:00 PM85 °FSunny.2 mph46%30.12 "Hg16 mi
6:00 PM85 °FSunny.2 mph41%30.12 "Hg19 mi
5:00 PM86 °FSunny.2 mph42%30.12 "Hg15 mi
4:00 PM85 °FSunny.3 mph43%30.12 "Hg14 mi
3:00 PM85 °FSunny.5 mph41%30.13 "Hg12 mi
2:00 PM83 °FSunny.5 mph44%30.14 "Hg28 mi
1:00 PM83 °FPassing clouds.3 mph50%30.15 "Hg17 mi
12:00 PM80 °FSunny.3 mph54%30.16 "Hg12 mi
11:00 AM78 °FSunny.3 mph55%30.17 "Hg8 mi
10:00 AM76 °FSunny.3 mph55%30.17 "Hg11 mi
9:00 AM73 °FSunny.2 mph65%30.18 "Hg16 mi
8:00 AM71 °FSunny.1 mph68%30.19 "Hg12 mi
7:00 AM63 °FSunny.1 mph89%30.19 "Hg6 mi
6:00 AM58 °FSunny.1 mph94%30.19 "Hg6 mi
4:00 AM61 °FClear.1 mph93%30.17 "Hg7 mi
Weather by CustomWeather, © 2015

See weather overviewHow to use our weather pages